Location: Harburg
(48.7667°N, 10.6667°E)
Time: 03:01:15
(UTC+00:00)

In-Cosmos 22 - Pass Details

Date: 18 September 2020
Orbit: 785 x 877 km, 81.2° (Epoch: 24 October)

Event Time Altitude Azimuth Distance (km) Brightness Sun altitude
Rises 19:08:16 0° 346° (NNW) 3,289 7.8 -17.6°
Reaches altitude 10° 19:10:39 10° 344° (NNW) 2,356 7.1 -18.0°
Maximum altitude 19:15:54 68° 262° (W) 850 4.3 -18.8°
Drops below altitude 10° 19:21:11 10° 180° (S) 2,365 6.3 -19.6°
Enters shadow 19:21:24 - 180° (S) 2,450 6.4 -19.6°
